Regional Weather Roundup
Issued by NWS Cleveland, OH

Home | Current Version | Previous Version | Graphics & Text | Print | Product List | Glossary On
Versions: 1 2 3 4 5 6 7 8 9 10 11 12 13 14 15 16 17 18 19 20 21 22 23 24 25 26 27 28 29 30 31 32 33 34 35 36 37 38 39 40 41 42 43 44 45 46 47 48 49 50
835
ASUS41 KCLE 221400
RWRCLE
OHIO REGIONAL WEATHER ROUNDUP
NATIONAL WEATHER SERVICE WILMINGTON, OH
1000 AM EDT TUE AUG 22 2017

NOTE: "FAIR" INDICATES FEW OR NO CLOUDS BELOW 12,000 FEET WITH NO
SIGNIFICANT WEATHER AND/OR OBSTRUCTIONS TO VISIBILITY.

OHZ001>008-015>018-024>027-034-035-043-044-221500-
   NORTHWEST OHIO

CITY           SKY/WX    TMP DP  RH WIND       PRES   REMARKS
DEFIANCE       PTSUNNY   71  67  87 SW8       29.87F
FINDLAY        FAIR      76  69  79 SW14      29.88F
TOLEDO EXPRESS LGT RAIN  71  70  96 SW15      29.84F
TOLEDO EXEC    PTSUNNY   74  70  87 SW10      29.85F
LIMA           FAIR      75  70  84 W12       29.91F
$$

OHZ009>014-019>023-028>033-038-089-221500-
   NORTHEAST OHIO

CITY           SKY/WX    TMP DP  RH WIND       PRES   REMARKS
CLE-HOPKINS    CLOUDY    81  70  69 SW10      29.89F
CLE-LAKEFRONT  CLOUDY    77  70  79 S18       29.85F
CUY CO. ARPT   LGT RAIN  82  70  65 SW17G23   29.89F
LORAIN-ELYRIA  PTSUNNY   77  66  68 SW10      29.88F
ASHTABULA      FAIR      79  71  76 SW14G21   29.89F
AKRON-CANTON   PTSUNNY   82  68  62 SW13G22   29.93F
WOOSTER        NOT AVBL
MANSFIELD      CLOUDY    78  70  76 SW13G23   29.92F
YOUNGSTOWN     PTSUNNY   81  68  64 SW14      29.93F
$$

OHZ042-051>053-060>062-070>072-077>081-221500-
  SOUTHWEST OHIO

CITY           SKY/WX    TMP DP  RH WIND       PRES   REMARKS
CINC-COVINGTON FAIR      79  73  82 SW9       29.98S
CINC-LUNKEN    FAIR      81  73  76 SW10      29.96F
HAMILTON       FAIR      83  73  72 SW9       29.96F
DAYTON         NOT AVBL
WRIGHT-PAT AFB NOT AVBL
DAYTON GENERAL PTSUNNY   80  71  74 SW10G20   29.95F
WILMINGTON     FAIR      80  72  76 SW17G24   29.96F
$$

OHZ036-037-039>041-045>050-054>059-063>069-073>076-082>088-221500-
  CENTRAL AND SOUTHEAST OHIO

CITY           SKY/WX    TMP DP  RH WIND       PRES   REMARKS
COLUMBUS       PTSUNNY   80  71  74 SW15      29.94F
OSU AIRPORT    FAIR      80  72  76 SW16G24   29.94F
BOLTON FIELD   SUNNY     81  72  74 SW13G21   29.96F
RICKENBACK AFB NOT AVBL
NEWARK         PTSUNNY   79  70  74 SW8       29.95F
MARION         LGT RAIN  74  70  87 SW8       29.93S FOG
LANCASTER      FAIR      79  70  74 SW12      29.97F
ZANESVILLE     FAIR      80  69  69 SW10G18   29.97F
NEW PHILLY     FAIR      78  71  79 S12G18    29.96F
$$




USA.gov is the U.S. government's official web portal to all federal, state and local government web resources and services.